Eagle River, WI

4:09 AM CDT on May 29, 2017 (GMT -0500)
Eagle River Union

Weather History for KEGV - February, 2013

Change the Weather History Date:

Saturday, February 16, 2013

  Actual Average Record
Temperature  
Mean Temperature 0 °F -  
Max Temperature 12 °F 22 °F 57 °F (2011)
Min Temperature -13 °F 3 °F -20 °F (2003)
Degree Days  
Heating Degree Days 66    
Moisture  
Dew Point -5 °F    
Average Humidity 75    
Maximum Humidity 85    
Minimum Humidity 53    
Precipitation  
Precipitation 0.00 in - - ()
Sea Level Pressure  
Sea Level Pressure 30.05 in    
Wind  
Wind Speed 3 mph (NNW)    
Max Wind Speed 8 mph    
Max Gust Speed -    
Visibility 9 miles    
Events Snow    
Averages and records for this station are not official NWS values.
T = Trace of Precipitation, MM = Missing Value Source: NWS Daily Summary

Daily Weather History Graph

Daily Weather History Graph

Search for Another Location

Airport or City:

Trip Planner

Search our weather history database for the weather conditions in past years. The results will help you decide how hot, cold, wet, or windy it might be!

Date:

Astronomy

Feb. 16, 2013 Rise Set
Actual Time 6:57 AM CST 5:25 PM CST
Civil Twilight 6:26 AM CST 5:55 PM CST
Nautical Twilight 5:52 AM CST 6:30 PM CST
Astronomical Twilight 5:17 AM CST 7:05 PM CST
Moon 9:47 AM CST (2/16) No Moon Set
Length of Visible Light 11h 29m
Length of Day
10h 27m
Waxing Crescent, 39% of the Moon is Illuminated
Feb 16
Waxing Crescent
Feb 17
First Quarter
Feb 25
Full
Mar 4
Last Quarter
Mar 11
New

Hourly Weather History & Observations

Time (CST) Temp. Windchill Dew Point Humidity Pressure Visibility Wind Dir Wind Speed Gust Speed Precip Events Conditions
12:15 AM 3.2 °F -7.8 °F -0.4 °F 85% 30.05 in 10.0 mi WNW 5.8 mph - N/A   Overcast
12:35 AM 3.2 °F -7.8 °F -0.4 °F 85% 30.05 in 10.0 mi WNW 5.8 mph - N/A   Overcast
12:55 AM 1.4 °F -9.9 °F -2.2 °F 85% 30.04 in 10.0 mi West 5.8 mph - N/A   Overcast
1:15 AM 1.4 °F -9.9 °F -4.0 °F 78% 30.05 in 10.0 mi WNW 5.8 mph - N/A   Mostly Cloudy
1:35 AM 1.4 °F -8.3 °F -4.0 °F 78% 30.04 in 10.0 mi West 4.6 mph - N/A   Mostly Cloudy
1:55 AM 1.4 °F -8.3 °F -4.0 °F 78% 30.04 in 10.0 mi West 4.6 mph - N/A   Scattered Clouds
2:15 AM -0.4 °F -8.3 °F -4.0 °F 85% 30.04 in 10.0 mi West 3.5 mph - N/A   Scattered Clouds
2:35 AM -0.4 °F - -4.0 °F 85% 30.03 in 10.0 mi Calm Calm - N/A   Mostly Cloudy
2:55 AM -0.4 °F -8.3 °F -5.8 °F 78% 30.03 in 10.0 mi WNW 3.5 mph - N/A Snow Light Snow
3:15 AM -0.4 °F - -5.8 °F 78% 30.03 in 3.0 mi Calm Calm - N/A Snow Light Snow
3:55 AM -0.4 °F - -5.8 °F 78% 30.03 in 7.0 mi Calm Calm - N/A Snow Light Snow
4:15 AM -0.4 °F - -5.8 °F 78% 30.03 in 10.0 mi Calm Calm - N/A Snow Light Snow
4:35 AM -0.4 °F -8.3 °F -5.8 °F 78% 30.03 in 10.0 mi WNW 3.5 mph - N/A   Scattered Clouds
4:55 AM -2.2 °F - -5.8 °F 85% 30.03 in 10.0 mi Calm Calm - N/A   Clear
5:15 AM -4.0 °F - -7.6 °F 85% 30.03 in 10.0 mi Calm Calm - N/A Snow Light Snow
5:55 AM -5.8 °F - -9.4 °F 84% 30.03 in 10.0 mi Calm Calm - N/A Snow Light Snow
6:15 AM -7.6 °F - -13.0 °F 77% 30.03 in 10.0 mi Calm Calm - N/A   Clear
6:55 AM -13.0 °F - -16.6 °F 84% 30.04 in 10.0 mi Calm Calm - N/A   Scattered Clouds
7:15 AM -9.4 °F - -14.8 °F 77% 30.04 in 10.0 mi Calm Calm - N/A   Scattered Clouds
7:35 AM -13.0 °F - -18.4 °F 77% 30.05 in 10.0 mi Calm Calm - N/A   Mostly Cloudy
7:55 AM -9.4 °F - -14.8 °F 77% 30.05 in 4.0 mi Calm Calm - N/A   Haze
8:15 AM -4.0 °F - -7.6 °F 85% 30.05 in 1.8 mi Calm Calm - N/A Snow Light Snow
8:35 AM -0.4 °F -8.3 °F -5.8 °F 78% 30.05 in 10.0 mi NW 3.5 mph - N/A   Scattered Clouds
8:55 AM 1.4 °F -6.2 °F -4.0 °F 78% 30.05 in 10.0 mi NNW 3.5 mph - N/A   Scattered Clouds
9:15 AM 3.2 °F -6.2 °F -0.4 °F 85% 30.05 in 10.0 mi NW 4.6 mph - N/A   Clear
9:35 AM 6.8 °F -3.5 °F 1.4 °F 79% 30.05 in 10.0 mi NW 5.8 mph - N/A   Scattered Clouds
12:15 PM 10.4 °F -0.4 °F -0.4 °F 62% 30.04 in 5.0 mi NW 6.9 mph - N/A Snow Light Snow
12:35 PM 12.2 °F 1.7 °F 1.4 °F 62% 30.04 in 5.0 mi North 6.9 mph - N/A Snow Light Snow
12:55 PM 12.2 °F 2.9 °F 1.4 °F 62% 30.03 in 5.0 mi NW 5.8 mph - N/A Snow Light Snow
1:15 PM 12.2 °F - -0.4 °F 57% 30.03 in 10.0 mi Calm Calm - N/A   Overcast
1:35 PM 10.4 °F -1.5 °F 3.2 °F 73% 30.03 in 3.0 mi NNE 8.1 mph - N/A Snow Light Snow
1:55 PM 12.2 °F 4.3 °F 1.4 °F 62% 30.03 in 10.0 mi North 4.6 mph - N/A   Overcast
2:15 PM 12.2 °F 1.7 °F -0.4 °F 57% 30.03 in 5.0 mi North 6.9 mph - N/A Snow Light Snow
2:35 PM 12.2 °F - -0.4 °F 57% 30.03 in 10.0 mi Calm Calm - N/A   Overcast
2:55 PM 12.2 °F 1.7 °F 1.4 °F 62% 30.03 in 7.0 mi NNE 6.9 mph - N/A   Overcast
3:15 PM 12.2 °F 4.3 °F -0.4 °F 57% 30.04 in 10.0 mi NNE 4.6 mph - N/A   Overcast
3:55 PM 12.2 °F 4.3 °F -0.4 °F 57% 30.04 in 10.0 mi NW 4.6 mph - N/A   Overcast
4:15 PM 12.2 °F 1.7 °F -2.2 °F 53% 30.05 in 10.0 mi North 6.9 mph - N/A   Overcast
4:35 PM 12.2 °F 2.9 °F -2.2 °F 53% 30.05 in 10.0 mi NNW 5.8 mph - N/A   Overcast
4:55 PM 12.2 °F 6.1 °F -0.4 °F 57% 30.05 in 10.0 mi NNW 3.5 mph - N/A   Overcast
5:15 PM 10.4 °F 2.2 °F 3.2 °F 73% 30.06 in 7.0 mi North 4.6 mph - N/A   Overcast
5:55 PM 10.4 °F - 3.2 °F 73% 30.07 in 10.0 mi Calm Calm - N/A   Overcast
6:15 PM 6.8 °F - 1.4 °F 79% 30.07 in 10.0 mi Calm Calm - N/A   Scattered Clouds
6:35 PM 5.0 °F -2.1 °F 1.4 °F 85% 30.07 in 10.0 mi North 3.5 mph - N/A   Scattered Clouds
7:15 PM 1.4 °F - -4.0 °F 78% 30.08 in 10.0 mi Calm Calm - N/A   Scattered Clouds
7:35 PM -0.4 °F - -4.0 °F 85% 30.08 in 10.0 mi Calm Calm - N/A   Scattered Clouds
7:55 PM -2.2 °F - -5.8 °F 85% 30.07 in 10.0 mi Calm Calm - N/A   Clear
8:15 PM -0.4 °F - -5.8 °F 78% 30.08 in 10.0 mi Calm Calm - N/A   Clear
9:15 PM -5.8 °F - -13.0 °F 71% 30.08 in 10.0 mi Calm Calm - N/A   Clear
9:55 PM -9.4 °F - -14.8 °F 77% 30.08 in 10.0 mi Calm Calm - N/A   Clear
10:15 PM -7.6 °F - -14.8 °F 71% 30.08 in 4.0 mi Calm Calm - N/A   Haze
10:35 PM -9.4 °F - -14.8 °F 77% 30.07 in 5.0 mi Calm Calm - N/A   Haze
10:55 PM -11.2 °F - -16.6 °F 77% 30.07 in 7.0 mi Calm Calm - N/A   Clear
11:15 PM -13.0 °F - -16.6 °F 84% 30.07 in 10.0 mi Calm Calm - N/A   Clear
11:35 PM -13.0 °F - -18.4 °F 77% 30.06 in 10.0 mi Calm Calm - N/A   Clear
11:55 PM -13.0 °F - -18.4 °F 77% 30.07 in 10.0 mi Calm Calm - N/A   Clear